{"data":{"norad_id":52632,"intl_designator":"2022-052AL","name":"STARLINK-3995","alt_names":[],"object_type":"PAYLOAD","status":"ACTIVE","operator":null,"country":"US","launch_date":"2022-05-14","launch_site_code":"AFETR","launch_vehicle":null,"mission":null,"orbit_class":"UNKNOWN","rcs_meters":null,"size_class":null,"mass_kg":null,"dimensions":null,"purposes":["comms"],"wikipedia_slug":null,"has_3d_model":false,"image_url":null,"decayed_at":null,"tle_current":{"epoch":"2026-09-20T03:12:48.479616Z","epoch_age_seconds":98119,"freshness":"FRESH","line1":"1 52632U 22052AL  26263.13389444  .00000267  00000+0  34857-4 0  9999","line2":"2 52632  53.1588 115.5668 0001419  90.8991 269.2163 15.08833664240350","mean_motion":15.08833664,"eccentricity":0.0001419,"inclination_deg":53.1588,"raan_deg":115.5668,"arg_perigee_deg":90.8991,"mean_anomaly_deg":269.2163,"bstar":3.4857e-5,"rev_number":24035,"period_min":95.43795544583,"perigee_km":538.78110567379,"apogee_km":540.74440562445,"semimajor_km":6917.8997556491,"source":"CELESTRAK","updated_at":"2026-09-20T09:00:40.096078Z"}}}